Tarawa Terrace, NC

9:54 AM EDT on August 27, 2016 (GMT -0400)
New River Marine Corps Air Station

Weather History for KNCA - March, 2012

Change the Weather History Date:

Monday, March 5, 2012

  Actual Average Record
Temperature  
Mean Temperature 47 °F -  
Max Temperature 59 °F 60 °F 81 °F (2015)
Min Temperature 35 °F 39 °F 24 °F (2002)
Degree Days  
Heating Degree Days 18    
Moisture  
Dew Point 28 °F    
Average Humidity 51    
Maximum Humidity 79    
Minimum Humidity 26    
Precipitation  
Precipitation 0.00 in - - ()
Sea Level Pressure  
Sea Level Pressure 30.18 in    
Wind  
Wind Speed 10 mph (West)    
Max Wind Speed 29 mph    
Max Gust Speed 40 mph    
Visibility 10 miles    
Events      
Averages and records for this station are not official NWS values.
T = Trace of Precipitation, MM = Missing Value Source: NWS Daily Summary

Daily Weather History Graph

Daily Weather History Graph

Search for Another Location

Airport or City:

Trip Planner

Search our weather history database for the weather conditions in past years. The results will help you decide how hot, cold, wet, or windy it might be!

Date:

Astronomy

Mar. 05, 2012 Rise Set
Actual Time 6:33 AM EST 6:09 PM EST
Civil Twilight 6:07 AM EST 6:34 PM EST
Nautical Twilight 5:38 AM EST 7:03 PM EST
Astronomical Twilight 5:09 AM EST 7:33 PM EST
Moon 3:30 PM EST (3/5) 4:25 AM EST (3/5)
Length of Visible Light 12h 26m
Length of Day
11h 36m
Waxing Gibbous, 91% of the Moon is Illuminated
Mar 5
Waxing Gibbous
Mar 8
Full
Mar 14
Last Quarter
Mar 22
New
Mar 30
First Quarter

Hourly Weather History & Observations

Time (EST) Temp. Windchill Dew Point Humidity Pressure Visibility Wind Dir Wind Speed Gust Speed Precip Events Conditions
12:56 AM 37.0 °F 31.6 °F 30.0 °F 76% 30.11 in 10.0 mi WSW 6.9 mph - N/A   Clear
1:56 AM 36.0 °F 31.1 °F 28.9 °F 76% 30.12 in 10.0 mi WSW 5.8 mph - N/A   Clear
2:56 AM 36.0 °F 31.1 °F 28.0 °F 73% 30.11 in 10.0 mi WSW 5.8 mph - N/A   Clear
3:56 AM 35.1 °F 31.0 °F 28.0 °F 76% 30.11 in 10.0 mi SSW 4.6 mph - N/A   Clear
4:56 AM 37.0 °F 31.6 °F 26.1 °F 65% 30.11 in 10.0 mi SSW 6.9 mph - N/A   Clear
5:56 AM 39.0 °F 34.0 °F 26.1 °F 60% 30.10 in 10.0 mi South 6.9 mph - N/A   Clear
6:56 AM 42.1 °F 37.1 °F 28.9 °F 60% 30.07 in 10.0 mi SSW 8.1 mph - N/A   Clear
7:56 AM 48.0 °F - 34.0 °F 58% 30.06 in 10.0 mi South 9.2 mph - N/A   Mostly Cloudy
8:56 AM 55.0 °F - 35.1 °F 47% 30.03 in 10.0 mi SSW 16.1 mph 24.2 mph N/A   Mostly Cloudy
9:56 AM 57.0 °F - 34.0 °F 42% 30.00 in 10.0 mi SW 15.0 mph 28.8 mph N/A   Mostly Cloudy
10:56 AM 59.0 °F - 32.0 °F 36% 30.01 in 10.0 mi WSW 16.1 mph 27.6 mph N/A   Overcast
11:56 AM 59.0 °F - 30.9 °F 35% 30.02 in 10.0 mi West 24.2 mph 39.1 mph N/A   Scattered Clouds
12:56 PM 57.9 °F - 30.9 °F 36% 30.04 in 10.0 mi WNW 25.3 mph 40.3 mph N/A   Overcast
1:56 PM 57.9 °F - 26.1 °F 30% 30.08 in 10.0 mi West 25.3 mph 38.0 mph N/A   Mostly Cloudy
2:56 PM 57.9 °F - 23.0 °F 26% 30.12 in 10.0 mi NW 28.8 mph 40.3 mph N/A   Scattered Clouds
3:56 PM 55.9 °F - 21.0 °F 26% 30.17 in 10.0 mi NW 19.6 mph 32.2 mph N/A   Clear
4:56 PM 54.0 °F - 21.0 °F 28% 30.22 in 10.0 mi NW 17.3 mph 27.6 mph N/A   Clear
5:56 PM 50.0 °F - 25.0 °F 38% 30.27 in 10.0 mi North 13.8 mph 24.2 mph N/A   Clear
6:56 PM 48.0 °F - 27.0 °F 44% 30.33 in 10.0 mi North 8.1 mph - N/A   Clear
7:56 PM 43.0 °F 40.3 °F 28.9 °F 58% 30.39 in 10.0 mi North 4.6 mph - N/A   Clear
8:56 PM 42.1 °F - 28.9 °F 60% 30.43 in 10.0 mi Calm Calm - N/A   Clear
9:56 PM 37.0 °F - 30.9 °F 79% 30.47 in 10.0 mi Calm Calm - N/A   Clear
10:56 PM 41.0 °F 34.7 °F 23.0 °F 49% 30.50 in 10.0 mi NNW 10.4 mph - N/A   Clear
11:56 PM 39.0 °F 34.8 °F 23.0 °F 53% 30.52 in 10.0 mi NNW 5.8 mph - N/A   Clear